星链-34335 (STARLINK-34335)

导读

STARLINK-34335是美国太空探索技术公司(SpaceX)星链互联网星座中的一颗卫星,于2025年6月13日发射入轨,归属美国所有。星链项目旨在构建全球卫星互联网星座,为全球提供高速互联网接入服务,STARLINK-34335的入轨进一步扩充了星链星座的规模,提升了星座的服务覆盖能力与稳定性。

Basic Information
目录编号:
64362
目录名称:
STARLINK-34335
国际标识:
2025-126U
轨道中心:
EARTH
卫星名称:
星链-34335
卫星全名:
星链-34335 (STARLINK-34335)
卫星状态:
在轨 (已飞行366 天)
发射日期:
2025-06-13 UTC
国别 :
美国 (US)
星等 :
--
Orbit Information
数据来源 国际轨道数据 AOE轨道数据
星历时间 2026-06-14T00:22:54+0800
9小时前
查看轨道信息
2026-06-12T17:00:00+0800
1天前
查看轨道信息
半长轴 6950.153km 6950.166km
偏心率 0.000382 0.0003946
轨道倾角 69.999° 69.999°
近地点辐角 264.482° 266.837°
升交点赤经 152.305° 155.601°
平近点角 95.591° 242.187°
近地点 569.361km 569.286km
远地点 574.671km 574.772km
周期 96.106分钟 96.106分钟
每日圈数 14.983431 14.98339
Detailed Information
固有亮度:
5
最大亮度:
2.5
卫星平台:
Starlink V1.0
覆盖范围:
全球
运营商:
太空探索技术公司
运营商所在国:
美国
制造商(研发单位):
太空探索技术公司
制造商所在国:
美国
使用方式:
暂无
Satellite Introduction
Starlink 计划是 SpaceX 推出的全球卫星互联网项目,通过发射低轨道卫星,为全球尤其是偏远地区提供高速、低延迟的互联网服务。自 2019 年起,Starlink 已部署数千颗卫星,旨在缩小全球数字鸿沟,推动互联网普及。该项目还为军事、航空等行业提供通信支持,带来广泛经济效益。
2D Orbit Map
3D Orbit Map
Orbit Altitude Analysis Chart
Orbit Inclination Analysis Chart
Orbit Comprehensive Analysis Chart
View Comprehensive Chart